Wetterdaten: Woche 16.02.15 - 22.02.15 (KW8)
Datum Zeit Temperatur Luftfeuchte Luftdruck Niederschlag Windrichtung Sonnenschein Solar Wind
16.02.2015 00:00 -2,0 C 96 % 1016,7 hPa 0,0 l/m O 0,00 h 0 W/m 1,3 km/h (1 Bft)
16.02.2015 01:00 -2,1 C 97 % 1016,8 hPa 0,0 l/m O 0,00 h 0 W/m 3,1 km/h (1 Bft)
16.02.2015 02:00 -2,2 C 97 % 1017,2 hPa 0,0 l/m O 0,00 h 0 W/m 3,1 km/h (1 Bft)
16.02.2015 03:00 -2,4 C 97 % 1017,4 hPa 0,0 l/m N 0,00 h 0 W/m 1,5 km/h (1 Bft)
16.02.2015 04:00 -2,6 C 97 % 1017,7 hPa 0,0 l/m N 0,00 h 0 W/m 1,7 km/h (1 Bft)
16.02.2015 05:00 -2,8 C 97 % 1018,2 hPa 0,0 l/m O 0,00 h 0 W/m 1,9 km/h (1 Bft)
16.02.2015 06:00 -3,2 C 97 % 1018,4 hPa 0,0 l/m N 0,00 h 0 W/m 0,5 km/h (0 Bft)
16.02.2015 07:00 -3,4 C 97 % 1018,9 hPa 0,0 l/m N 0,00 h 7 W/m 2,5 km/h (1 Bft)
16.02.2015 08:00 -3,6 C 97 % 1019,5 hPa 0,0 l/m O 0,00 h 26 W/m 2,8 km/h (1 Bft)
16.02.2015 09:00 -3,5 C 97 % 1020,0 hPa 0,0 l/m N 0,00 h 60 W/m 1,5 km/h (1 Bft)
16.02.2015 10:00 -3,5 C 98 % 1019,9 hPa 0,0 l/m N 0,00 h 104 W/m 0,7 km/h (0 Bft)
16.02.2015 11:00 -2,9 C 98 % 1020,0 hPa 0,0 l/m N 0,00 h 172 W/m 2,3 km/h (1 Bft)
16.02.2015 12:00 -2,0 C 96 % 1019,9 hPa 0,0 l/m O 0,08 h 217 W/m 3,3 km/h (1 Bft)
16.02.2015 13:00 -0,9 C 92 % 1019,4 hPa 0,0 l/m O 0,92 h 388 W/m 3,7 km/h (1 Bft)
16.02.2015 14:00 0,5 C 88 % 1019,0 hPa 0,0 l/m O 1,00 h 420 W/m 4,8 km/h (1 Bft)
16.02.2015 15:00 1,5 C 86 % 1018,8 hPa 0,0 l/m O 1,00 h 306 W/m 5,9 km/h (2 Bft)
16.02.2015 16:00 1,2 C 86 % 1018,8 hPa 0,0 l/m O 1,00 h 144 W/m 4,7 km/h (1 Bft)
16.02.2015 17:00 -0,4 C 91 % 1019,0 hPa 0,0 l/m O-NO 0,17 h 19 W/m 7,4 km/h (2 Bft)
16.02.2015 18:00 -1,2 C 92 % 1019,5 hPa 0,0 l/m NO 0,00 h 0 W/m 8,2 km/h (2 Bft)
16.02.2015 19:00 -1,6 C 94 % 1019,9 hPa 0,0 l/m N-NO 0,00 h 0 W/m 8,8 km/h (2 Bft)
16.02.2015 20:00 -1,7 C 95 % 1020,6 hPa 0,0 l/m N-NO 0,00 h 0 W/m 6,3 km/h (2 Bft)
16.02.2015 21:00 -1,9 C 95 % 1020,9 hPa 0,0 l/m N-NO 0,00 h 0 W/m 4,0 km/h (1 Bft)
16.02.2015 22:00 -2,1 C 96 % 1021,1 hPa 0,0 l/m N-NO 0,00 h 0 W/m 1,3 km/h (1 Bft)
16.02.2015 23:00 -2,2 C 96 % 1021,4 hPa 0,0 l/m N 0,00 h 0 W/m 1,2 km/h (1 Bft)
17.02.2015 00:00 -2,4 C 96 % 1022,0 hPa 0,0 l/m N 0,00 h 0 W/m 0,7 km/h (0 Bft)
17.02.2015 01:00 -2,5 C 97 % 1022,8 hPa 0,0 l/m N-NO 0,00 h 0 W/m 1,1 km/h (0 Bft)
17.02.2015 02:00 -2,8 C 97 % 1023,5 hPa 0,0 l/m N-NO 0,00 h 0 W/m 2,0 km/h (1 Bft)
17.02.2015 03:00 -3,0 C 97 % 1023,9 hPa 0,0 l/m N-NW 0,00 h 0 W/m 3,6 km/h (1 Bft)
17.02.2015 04:00 -3,2 C 97 % 1024,4 hPa 0,0 l/m N-NW 0,00 h 0 W/m 3,3 km/h (1 Bft)
17.02.2015 05:00 -3,4 C 97 % 1025,2 hPa 0,0 l/m N-NW 0,00 h 0 W/m 2,5 km/h (1 Bft)
17.02.2015 06:00 -3,4 C 97 % 1025,9 hPa 0,0 l/m N 0,00 h 0 W/m 2,0 km/h (1 Bft)
17.02.2015 07:00 -3,7 C 97 % 1027,1 hPa 0,0 l/m N-NW 0,00 h 12 W/m 5,1 km/h (1 Bft)
17.02.2015 08:00 -3,7 C 97 % 1028,3 hPa 0,0 l/m NW 0,00 h 44 W/m 2,3 km/h (1 Bft)
17.02.2015 09:00 -3,0 C 98 % 1029,5 hPa 0,0 l/m W-NW 0,00 h 105 W/m 5,3 km/h (1 Bft)
17.02.2015 10:00 -2,1 C 97 % 1030,4 hPa 0,0 l/m W-NW 0,00 h 135 W/m 4,5 km/h (1 Bft)
17.02.2015 11:00 -1,3 C 96 % 1031,1 hPa 0,0 l/m W-NW 0,00 h 128 W/m 2,1 km/h (1 Bft)
17.02.2015 12:00 -0,5 C 95 % 1031,5 hPa 0,0 l/m W-NW 0,00 h 150 W/m 4,1 km/h (1 Bft)
17.02.2015 13:00 -0,1 C 93 % 1031,7 hPa 0,0 l/m W-NW 0,00 h 170 W/m 3,5 km/h (1 Bft)
17.02.2015 14:00 0,4 C 92 % 1032,2 hPa 0,0 l/m W-NW 0,08 h 180 W/m 3,7 km/h (1 Bft)
17.02.2015 15:00 1,1 C 89 % 1032,5 hPa 0,0 l/m W-NW 0,92 h 229 W/m 4,3 km/h (1 Bft)
17.02.2015 16:00 0,8 C 90 % 1033,1 hPa 0,0 l/m N 0,17 h 59 W/m 2,3 km/h (1 Bft)
17.02.2015 17:00 0,4 C 92 % 1034,0 hPa 0,0 l/m NW 0,00 h 11 W/m 4,5 km/h (1 Bft)
17.02.2015 18:00 0,1 C 91 % 1035,2 hPa 0,0 l/m N-NW 0,00 h 0 W/m 7,9 km/h (2 Bft)
17.02.2015 19:00 -0,2 C 91 % 1036,3 hPa 0,0 l/m N-NO 0,00 h 0 W/m 7,2 km/h (2 Bft)
17.02.2015 20:00 -0,5 C 92 % 1036,9 hPa 0,0 l/m N-NO 0,00 h 0 W/m 6,9 km/h (2 Bft)
17.02.2015 21:00 -0,9 C 93 % 1037,8 hPa 0,0 l/m N-NO 0,00 h 0 W/m 7,4 km/h (2 Bft)
17.02.2015 22:00 -1,4 C 93 % 1038,5 hPa 0,0 l/m N-NO 0,00 h 0 W/m 7,1 km/h (2 Bft)
17.02.2015 23:00 -1,6 C 94 % 1038,8 hPa 0,0 l/m N-NO 0,00 h 0 W/m 3,1 km/h (1 Bft)
18.02.2015 00:00 -1,8 C 94 % 1039,2 hPa 0,0 l/m N-NO 0,00 h 0 W/m 4,9 km/h (1 Bft)
18.02.2015 01:00 -1,9 C 94 % 1039,3 hPa 0,0 l/m N-NO 0,00 h 0 W/m 5,2 km/h (1 Bft)
18.02.2015 02:00 -2,1 C 94 % 1039,3 hPa 0,0 l/m N-NO 0,00 h 0 W/m 3,9 km/h (1 Bft)
18.02.2015 03:00 -2,2 C 94 % 1039,0 hPa 0,0 l/m N-NO 0,00 h 0 W/m 3,9 km/h (1 Bft)
18.02.2015 04:00 -2,2 C 95 % 1038,8 hPa 0,0 l/m NO 0,00 h 0 W/m 5,5 km/h (1 Bft)
18.02.2015 05:00 -2,4 C 95 % 1038,8 hPa 0,0 l/m O-SO 0,00 h 0 W/m 9,4 km/h (2 Bft)
18.02.2015 06:00 -2,7 C 95 % 1039,1 hPa 0,0 l/m O 0,00 h 0 W/m 7,2 km/h (2 Bft)
18.02.2015 07:00 -2,7 C 95 % 1039,4 hPa 0,0 l/m O-NO 0,00 h 6 W/m 8,8 km/h (2 Bft)
18.02.2015 08:00 -2,7 C 96 % 1039,9 hPa 0,0 l/m O-NO 0,00 h 15 W/m 12,8 km/h (3 Bft)
18.02.2015 09:00 -2,7 C 96 % 1040,0 hPa 0,0 l/m O 0,00 h 36 W/m 11,8 km/h (2 Bft)
18.02.2015 10:00 -2,3 C 96 % 1040,0 hPa 0,0 l/m O 0,00 h 54 W/m 12,2 km/h (2 Bft)
18.02.2015 11:00 -2,0 C 95 % 1039,8 hPa 0,0 l/m O 0,00 h 80 W/m 13,3 km/h (3 Bft)
18.02.2015 12:00 -1,5 C 94 % 1039,1 hPa 0,0 l/m O-NO 0,00 h 100 W/m 13,7 km/h (3 Bft)
18.02.2015 13:00 -1,2 C 92 % 1038,6 hPa 0,0 l/m O 0,00 h 103 W/m 11,6 km/h (2 Bft)
18.02.2015 14:00 -0,9 C 92 % 1038,1 hPa 0,0 l/m O-NO 0,00 h 77 W/m 12,1 km/h (2 Bft)
18.02.2015 15:00 -0,7 C 92 % 1037,6 hPa 0,0 l/m O 0,00 h 55 W/m 10,3 km/h (2 Bft)
18.02.2015 16:00 -0,7 C 92 % 1037,2 hPa 0,0 l/m O-NO 0,00 h 33 W/m 11,4 km/h (2 Bft)
18.02.2015 17:00 -0,8 C 92 % 1036,9 hPa 0,0 l/m O-NO 0,00 h 9 W/m 10,7 km/h (2 Bft)
18.02.2015 18:00 -0,9 C 93 % 1037,1 hPa 0,0 l/m O-NO 0,00 h 0 W/m 10,2 km/h (2 Bft)
18.02.2015 19:00 -1,0 C 93 % 1037,1 hPa 0,0 l/m O-NO 0,00 h 0 W/m 9,0 km/h (2 Bft)
18.02.2015 20:00 -1,2 C 93 % 1037,0 hPa 0,0 l/m O 0,00 h 0 W/m 6,8 km/h (2 Bft)
18.02.2015 21:00 -1,3 C 93 % 1037,2 hPa 0,0 l/m O 0,00 h 0 W/m 5,3 km/h (1 Bft)
18.02.2015 22:00 -1,4 C 93 % 1037,4 hPa 0,0 l/m O 0,00 h 0 W/m 2,9 km/h (1 Bft)
18.02.2015 23:00 -1,5 C 93 % 1037,4 hPa 0,0 l/m O-SO 0,00 h 0 W/m 3,3 km/h (1 Bft)
19.02.2015 00:00 -1,7 C 93 % 1037,1 hPa 0,0 l/m O-SO 0,00 h 0 W/m 3,7 km/h (1 Bft)
19.02.2015 01:00 -1,8 C 93 % 1036,4 hPa 0,0 l/m O-SO 0,00 h 0 W/m 1,7 km/h (1 Bft)
19.02.2015 02:00 -1,9 C 93 % 1035,7 hPa 0,0 l/m W-SW 0,00 h 0 W/m 5,5 km/h (1 Bft)
19.02.2015 03:00 -1,8 C 94 % 1035,0 hPa 0,0 l/m SW 0,00 h 0 W/m 9,8 km/h (2 Bft)
19.02.2015 04:00 -1,9 C 94 % 1034,3 hPa 0,0 l/m SW 0,00 h 0 W/m 12,2 km/h (2 Bft)
19.02.2015 05:00 -2,1 C 94 % 1033,9 hPa 0,0 l/m SW 0,00 h 0 W/m 10,1 km/h (2 Bft)
19.02.2015 06:00 -2,1 C 94 % 1033,4 hPa 0,0 l/m SW 0,00 h 0 W/m 9,7 km/h (2 Bft)
19.02.2015 07:00 -2,2 C 94 % 1033,4 hPa 0,0 l/m W 0,00 h 9 W/m 9,9 km/h (2 Bft)
19.02.2015 08:00 -2,3 C 94 % 1033,3 hPa 0,0 l/m SW 0,00 h 36 W/m 11,3 km/h (2 Bft)
19.02.2015 09:00 -2,0 C 93 % 1033,2 hPa 0,0 l/m S-SW 0,00 h 75 W/m 7,9 km/h (2 Bft)
19.02.2015 10:00 -1,4 C 92 % 1033,2 hPa 0,0 l/m SW 0,00 h 150 W/m 7,9 km/h (2 Bft)
19.02.2015 11:00 -0,4 C 89 % 1032,8 hPa 0,0 l/m SW 0,67 h 379 W/m 8,4 km/h (2 Bft)
19.02.2015 12:00 1,1 C 84 % 1032,0 hPa 0,0 l/m S-SW 1,00 h 502 W/m 9,0 km/h (2 Bft)
19.02.2015 13:00 2,6 C 79 % 1031,0 hPa 0,0 l/m S-SW 1,00 h 498 W/m 10,4 km/h (2 Bft)
19.02.2015 14:00 3,7 C 76 % 1030,1 hPa 0,0 l/m S-SW 1,00 h 432 W/m 9,8 km/h (2 Bft)
19.02.2015 15:00 4,0 C 74 % 1029,4 hPa 0,0 l/m S-SW 1,00 h 314 W/m 10,1 km/h (2 Bft)
19.02.2015 16:00 3,3 C 76 % 1028,6 hPa 0,0 l/m SW 1,00 h 167 W/m 8,7 km/h (2 Bft)
19.02.2015 17:00 2,2 C 81 % 1028,1 hPa 0,0 l/m S-SW 0,33 h 25 W/m 5,6 km/h (1 Bft)
19.02.2015 18:00 1,3 C 82 % 1027,7 hPa 0,0 l/m N 0,00 h 0 W/m 0,4 km/h (0 Bft)
19.02.2015 19:00 -0,0 C 83 % 1027,3 hPa 0,0 l/m N 0,00 h 0 W/m 0,0 km/h (0 Bft)
19.02.2015 20:00 -1,4 C 85 % 1027,1 hPa 0,0 l/m N 0,00 h 0 W/m 0,3 km/h (0 Bft)
19.02.2015 21:00 -2,2 C 88 % 1026,6 hPa 0,0 l/m N 0,00 h 0 W/m 0,3 km/h (0 Bft)
19.02.2015 22:00 -2,5 C 90 % 1026,3 hPa 0,0 l/m N 0,00 h 0 W/m 0,9 km/h (0 Bft)
19.02.2015 23:00 -2,6 C 91 % 1026,0 hPa 0,0 l/m N 0,00 h 0 W/m 0,4 km/h (0 Bft)
20.02.2015 00:00 -3,4 C 91 % 1025,6 hPa 0,0 l/m N 0,00 h 0 W/m 0,0 km/h (0 Bft)
20.02.2015 01:00 -4,1 C 91 % 1025,3 hPa 0,0 l/m N 0,00 h 0 W/m 0,0 km/h (0 Bft)
20.02.2015 02:00 -4,4 C 92 % 1025,1 hPa 0,0 l/m N 0,00 h 0 W/m 0,0 km/h (0 Bft)
20.02.2015 03:00 -4,5 C 93 % 1024,6 hPa 0,0 l/m N 0,00 h 0 W/m 0,3 km/h (0 Bft)
20.02.2015 04:00 -4,8 C 93 % 1024,0 hPa 0,0 l/m N 0,00 h 0 W/m 0,7 km/h (0 Bft)
20.02.2015 05:00 -5,0 C 93 % 1023,5 hPa 0,0 l/m N 0,00 h 0 W/m 0,0 km/h (0 Bft)
20.02.2015 06:00 -5,3 C 93 % 1022,8 hPa 0,0 l/m N 0,00 h 0 W/m 0,5 km/h (0 Bft)
20.02.2015 07:00 -5,5 C 93 % 1022,5 hPa 0,0 l/m N 0,00 h 12 W/m 1,1 km/h (0 Bft)
20.02.2015 08:00 -4,1 C 94 % 1022,5 hPa 0,0 l/m N 0,33 h 67 W/m 1,5 km/h (1 Bft)
20.02.2015 09:00 -0,7 C 85 % 1022,1 hPa 0,0 l/m S-SW 1,00 h 255 W/m 2,4 km/h (1 Bft)
20.02.2015 10:00 2,3 C 69 % 1021,5 hPa 0,0 l/m S-SW 1,00 h 389 W/m 3,9 km/h (1 Bft)
20.02.2015 11:00 5,0 C 61 % 1020,6 hPa 0,0 l/m S-SW 1,00 h 502 W/m 8,7 km/h (2 Bft)
20.02.2015 12:00 7,0 C 57 % 1019,1 hPa 0,0 l/m S-SW 1,00 h 545 W/m 12,2 km/h (2 Bft)
20.02.2015 13:00 8,1 C 54 % 1017,9 hPa 0,0 l/m SW 1,00 h 537 W/m 16,0 km/h (3 Bft)
20.02.2015 14:00 8,9 C 51 % 1016,6 hPa 0,0 l/m SW 1,00 h 473 W/m 12,5 km/h (3 Bft)
20.02.2015 15:00 9,2 C 49 % 1015,5 hPa 0,0 l/m SW 1,00 h 362 W/m 9,5 km/h (2 Bft)
20.02.2015 16:00 8,6 C 49 % 1014,1 hPa 0,0 l/m SW 1,00 h 196 W/m 5,8 km/h (1 Bft)
20.02.2015 17:00 6,9 C 55 % 1013,0 hPa 0,0 l/m N 0,33 h 31 W/m 2,3 km/h (1 Bft)
20.02.2015 18:00 4,3 C 62 % 1012,2 hPa 0,0 l/m N 0,00 h 0 W/m 0,0 km/h (0 Bft)
20.02.2015 19:00 1,7 C 70 % 1011,5 hPa 0,0 l/m N 0,00 h 0 W/m 0,1 km/h (0 Bft)
20.02.2015 20:00 0,2 C 75 % 1010,7 hPa 0,0 l/m N 0,00 h 0 W/m 0,0 km/h (0 Bft)
20.02.2015 21:00 -0,8 C 78 % 1010,0 hPa 0,0 l/m N 0,00 h 0 W/m 0,0 km/h (0 Bft)
20.02.2015 22:00 -1,7 C 82 % 1009,1 hPa 0,0 l/m N 0,00 h 0 W/m 0,0 km/h (0 Bft)
20.02.2015 23:00 -2,4 C 84 % 1008,1 hPa 0,0 l/m N 0,00 h 0 W/m 0,0 km/h (0 Bft)
21.02.2015 00:00 -3,2 C 85 % 1007,2 hPa 0,0 l/m N 0,00 h 0 W/m 0,0 km/h (0 Bft)
21.02.2015 01:00 -3,8 C 88 % 1006,4 hPa 0,0 l/m N 0,00 h 0 W/m 0,0 km/h (0 Bft)
21.02.2015 02:00 -4,4 C 89 % 1005,6 hPa 0,0 l/m N 0,00 h 0 W/m 0,0 km/h (0 Bft)
21.02.2015 03:00 -4,8 C 90 % 1004,8 hPa 0,0 l/m N 0,00 h 0 W/m 0,1 km/h (0 Bft)
21.02.2015 04:00 -4,9 C 91 % 1004,3 hPa 0,0 l/m N 0,00 h 0 W/m 0,0 km/h (0 Bft)
21.02.2015 05:00 -5,2 C 91 % 1003,5 hPa 0,0 l/m N 0,00 h 0 W/m 0,3 km/h (0 Bft)
21.02.2015 06:00 -5,1 C 92 % 1002,6 hPa 0,0 l/m N 0,00 h 0 W/m 0,5 km/h (0 Bft)
21.02.2015 07:00 -4,5 C 93 % 1001,9 hPa 0,0 l/m N 0,25 h 22 W/m 0,0 km/h (0 Bft)
21.02.2015 08:00 -3,1 C 94 % 1002,0 hPa 0,0 l/m N 0,00 h 50 W/m 0,4 km/h (0 Bft)
21.02.2015 09:00 -0,7 C 93 % 1001,6 hPa 0,0 l/m N 0,00 h 120 W/m 0,9 km/h (0 Bft)
21.02.2015 10:00 2,3 C 80 % 1000,8 hPa 0,0 l/m N 0,83 h 318 W/m 1,2 km/h (1 Bft)
21.02.2015 11:00 4,5 C 70 % 1000,2 hPa 0,0 l/m N 0,42 h 294 W/m 1,6 km/h (1 Bft)
21.02.2015 12:00 5,7 C 66 % 999,5 hPa 0,0 l/m SW 0,42 h 260 W/m 2,7 km/h (1 Bft)
21.02.2015 13:00 6,4 C 66 % 999,2 hPa 0,0 l/m W-NW 0,08 h 214 W/m 12,5 km/h (3 Bft)
21.02.2015 14:00 6,6 C 70 % 999,3 hPa 0,0 l/m W-NW 0,08 h 187 W/m 13,7 km/h (3 Bft)
21.02.2015 15:00 6,2 C 72 % 1000,0 hPa 0,0 l/m W-NW 0,00 h 104 W/m 9,8 km/h (2 Bft)
21.02.2015 16:00 5,3 C 75 % 1000,5 hPa 0,0 l/m W-NW 0,00 h 34 W/m 9,9 km/h (2 Bft)
21.02.2015 17:00 3,5 C 85 % 1001,1 hPa 0,2 l/m NW 0,00 h 8 W/m 4,7 km/h (1 Bft)
21.02.2015 18:00 2,5 C 88 % 1001,9 hPa 1,0 l/m NW 0,00 h 0 W/m 2,9 km/h (1 Bft)
21.02.2015 19:00 1,5 C 89 % 1002,4 hPa 0,6 l/m N 0,00 h 0 W/m 0,0 km/h (0 Bft)
21.02.2015 20:00 0,9 C 91 % 1002,6 hPa 1,2 l/m N 0,00 h 0 W/m 0,3 km/h (0 Bft)
21.02.2015 21:00 0,7 C 93 % 1002,8 hPa 0,4 l/m N 0,00 h 0 W/m 0,0 km/h (0 Bft)
21.02.2015 22:00 0,6 C 94 % 1003,3 hPa 0,6 l/m N 0,00 h 0 W/m 0,0 km/h (0 Bft)
21.02.2015 23:00 0,5 C 95 % 1003,3 hPa 0,6 l/m N 0,00 h 0 W/m 0,0 km/h (0 Bft)
22.02.2015 00:00 0,6 C 96 % 1003,6 hPa 0,8 l/m N 0,00 h 0 W/m 0,0 km/h (0 Bft)
22.02.2015 01:00 0,5 C 96 % 1004,1 hPa 1,0 l/m N 0,00 h 0 W/m 0,1 km/h (0 Bft)
22.02.2015 02:00 0,3 C 96 % 1004,5 hPa 0,4 l/m N 0,00 h 0 W/m 0,0 km/h (0 Bft)
22.02.2015 03:00 0,1 C 96 % 1004,6 hPa 0,0 l/m N 0,00 h 0 W/m 0,0 km/h (0 Bft)
22.02.2015 04:00 -0,1 C 96 % 1005,2 hPa 0,0 l/m N 0,00 h 0 W/m 0,0 km/h (0 Bft)
22.02.2015 05:00 -0,3 C 96 % 1005,8 hPa 0,0 l/m N 0,00 h 0 W/m 0,0 km/h (0 Bft)
22.02.2015 06:00 -0,7 C 96 % 1006,4 hPa 0,0 l/m N 0,00 h 0 W/m 0,0 km/h (0 Bft)
22.02.2015 07:00 -1,3 C 96 % 1007,2 hPa 0,0 l/m N 0,00 h 13 W/m 0,0 km/h (0 Bft)
22.02.2015 08:00 -1,8 C 96 % 1008,2 hPa 0,0 l/m N 0,00 h 62 W/m 0,0 km/h (0 Bft)
22.02.2015 09:00 -0,8 C 97 % 1008,8 hPa 0,0 l/m N 0,42 h 161 W/m 0,0 km/h (0 Bft)
22.02.2015 10:00 -0,3 C 97 % 1009,5 hPa 0,0 l/m N 0,00 h 201 W/m 0,1 km/h (0 Bft)
22.02.2015 11:00 1,0 C 97 % 1010,2 hPa 0,0 l/m N 0,00 h 178 W/m 0,0 km/h (0 Bft)
22.02.2015 12:00 1,7 C 95 % 1010,2 hPa 0,0 l/m N 0,00 h 198 W/m 1,3 km/h (1 Bft)
22.02.2015 13:00 2,2 C 91 % 1009,9 hPa 0,0 l/m NW 0,00 h 223 W/m 2,4 km/h (1 Bft)
22.02.2015 14:00 2,4 C 88 % 1010,1 hPa 0,0 l/m N 0,00 h 125 W/m 1,1 km/h (0 Bft)
22.02.2015 15:00 2,4 C 88 % 1010,1 hPa 0,0 l/m N 0,00 h 86 W/m 0,8 km/h (0 Bft)
22.02.2015 16:00 2,3 C 89 % 1010,1 hPa 0,0 l/m NW 0,00 h 58 W/m 1,6 km/h (1 Bft)
22.02.2015 17:00 1,7 C 92 % 1010,5 hPa 0,0 l/m N 0,00 h 14 W/m 0,5 km/h (0 Bft)
22.02.2015 18:00 1,4 C 94 % 1010,7 hPa 0,0 l/m N 0,00 h 0 W/m 0,0 km/h (0 Bft)
22.02.2015 19:00 1,1 C 94 % 1011,0 hPa 0,0 l/m N 0,00 h 0 W/m 0,0 km/h (0 Bft)
22.02.2015 20:00 0,5 C 94 % 1011,1 hPa 0,0 l/m N 0,00 h 0 W/m 0,3 km/h (0 Bft)
22.02.2015 21:00 -0,7 C 93 % 1010,8 hPa 0,0 l/m N 0,00 h 0 W/m 0,1 km/h (0 Bft)
22.02.2015 22:00 -1,8 C 94 % 1010,3 hPa 0,0 l/m N 0,00 h 0 W/m 0,8 km/h (0 Bft)
22.02.2015 23:00 -2,6 C 94 % 1009,4 hPa 0,0 l/m N 0,00 h 0 W/m 0,8 km/h (0 Bft)
Min-Datum _ 20.02.15 20.02.15 21.02.15 - - - - 16.02.15
_ Min-Zeit 07:10 15:30 13:00 - - - - 00:00
Minimum _ -5,6 C 46 % 999,1 hPa - - - - 0,0 km/h (0 Bft)
Max-Datum _ 20.02.15 16.02.15 18.02.15 21.02.15 - 16.02.15 20.02.15 21.02.15
_ Max-Zeit 15:25 10:00 09:00 20:00 - 12:50 12:50 13:10
Maximum _ 9,4 C 98 % 1040,2 hPa 1,2 l/m - 0,08 h 554 W/m 20,9 km/h
W-NW (4 Bft)
Durchschnitt _ -0,6 C 89 % 1021,2 hPa #6,8 l/m O #22:30 h 163 W/m 4,1 km/h (1 Bft)